sat.trackr.live / text

‹ back to catalog

LANDSAT 8

NORAD 39084 · 2013-008A

PAYLOAD ACTIVE UNKNOWN

§ Identity

Operator
Country
US
Launch date
2013-02-11
Launch site
AFWTR
Launch vehicle
Mass (kg)
RCS (m²)
7.11

Purposes: earth_obs

External: N2YO · Heavens-Above · Gunter

§ Orbital elements

Epoch: 2026-05-25T03:47:05.625600Z

Period
98.83 min
Inclination
98.1837°
Eccentricity
0.0001347
Mean motion
14.57118622 rev/d
Perigee alt
701.5 km
Apogee alt
703.4 km
Semi-major
7,080.6 km
B*
6.3678e-5
RAAN
215.5845°
Arg perigee
102.7202°
Mean anomaly
257.4147°
Rev number
69,454

§ Raw data

LANDSAT 81 39084U 13008A   26145.15770400  .00000242  00000+0  63678-4 0  99992 39084  98.1837 215.5845 0001347 102.7202 257.4147 14.57118622694546

JSON: /api/v1/satellites/39084 · /tle

For live sub-satellite position, see the globe view (requires WebGL).

§ Visibility from observer

Set your observer location to see the next 7 days of passes ≥ 10°. The values pass through the URL so the page stays shareable.

No JS? Fill the form by hand. The geolocation button needs JavaScript.

§ Radio — SatNOGS DB

ModeDescriptionDownlinkUplink
FM S-band telemetry 2.282 GHz
OQPSK X-band Direct Downlink [OQPSK, RHCP, 7/8 LDPC] Transmitter — OLI/TIRS payload 8.201 GHz

2 transmitters · refreshed weekly from db.satnogs.org